SAR-LUPE 2

Last updated on Mon Jun 22 2026 00:03:45 GMT+0000 (Coordinated Universal Time)

1 31797U 07030A 26172.54185300 .00033618 00000+0 58740-3 0 9998 2 31797 98.1044 277.5146 0004119 147.2297 212.9209 15.50596132 57615
UTC large
Height (km)
Speed (km/s)
/
Latitude / Longitude
Inclination (degrees)
Orbital Period (minutes)
Azimuth
Elevation
Range (km)
Doppler Factor

Next 0 passes for location: London (51.5072 / 0.1276)

No passes found over London.
SAR-LUPE 2